| time (UTC) | temp C | wind direction | speed KPH | gust KPH | rain 1hr cm | rain 24hr cm | rain mn cm | humidity % | barometer mb |
| 20260510231552 | 26 | 177 | 3.2 | 11.3 | 0.00 | 0.00 | 0.00 | 46 | 1019.7 |
| 20260510231048 | 26 | 139 | 1.6 | 11.3 | 0.00 | 0.00 | 0.00 | 45 | 1019.7 |
| 20260510230547 | 26 | 149 | 1.6 | 9.7 | 0.00 | 0.00 | 0.00 | 44 | 1019.8 |
| 20260510225547 | 27 | 205 | 1.6 | 8.0 | 0.00 | 0.00 | 0.00 | 39 | 1019.6 |
| 20260510225047 | 27 | 117 | 3.2 | 8.0 | 0.00 | 0.00 | 0.00 | 38 | 1019.7 |
| 20260510224555 | 27 | 190 | 1.6 | 9.7 | 0.00 | 0.00 | 0.00 | 37 | 1019.8 |
| 20260510224046 | 27 | 174 | 0.0 | 9.7 | 0.00 | 0.00 | 0.00 | 35 | 1019.9 |
| 20260510223544 | 27 | 115 | 3.2 | 12.9 | 0.00 | 0.00 | 0.00 | 35 | 1019.9 |
| 20260510223052 | 27 | 147 | 3.2 | 12.9 | 0.00 | 0.00 | 0.00 | 35 | 1019.8 |
| 20260510222547 | 27 | 179 | 1.6 | 8.0 | 0.00 | 0.00 | 0.00 | 32 | 1019.8 |
| 20260510222047 | 27 | 180 | 1.6 | 9.7 | 0.00 | 0.00 | 0.00 | 31 | 1019.8 |
| 20260510221553 | 27 | 234 | 3.2 | 11.3 | 0.00 | 0.00 | 0.00 | 32 | 1019.8 |
| 20260510221048 | 28 | 150 | 1.6 | 11.3 | 0.00 | 0.00 | 0.00 | 32 | 1019.8 |
| 20260510220548 | 27 | 235 | 1.6 | 11.3 | 0.00 | 0.00 | 0.00 | 32 | 1019.8 |
| 20260510220056 | 27 | 173 | 4.8 | 11.3 | 0.00 | 0.00 | 0.00 | 30 | 1019.9 |
| 20260510215547 | 27 | 208 | 3.2 | 6.4 | 0.00 | 0.00 | 0.00 | 31 | 1019.8 |
| 20260510215047 | 27 | 180 | 1.6 | 8.0 | 0.00 | 0.00 | 0.00 | 33 | 1019.8 |
| 20260510214554 | 27 | 173 | 3.2 | 9.7 | 0.00 | 0.00 | 0.00 | 31 | 1019.9 |
| 20260510214047 | 27 | 144 | 3.2 | 11.3 | 0.00 | 0.00 | 0.00 | 33 | 1019.9 |
| 20260510213547 | 27 | 181 | 1.6 | 11.3 | 0.00 | 0.00 | 0.00 | 28 | 1020.0 |
| 20260510213055 | 27 | 207 | 3.2 | 11.3 | 0.00 | 0.00 | 0.00 | 27 | 1020.0 |
| 20260510212547 | 27 | 219 | 1.6 | 6.4 | 0.00 | 0.00 | 0.00 | 30 | 1020.0 |
| 20260510212048 | 27 | 124 | 1.6 | 6.4 | 0.00 | 0.00 | 0.00 | 33 | 1020.0 |
| 20260510211601 | 27 | 121 | 1.6 | 12.9 | 0.00 | 0.00 | 0.00 | 33 | 1020.0 |
| 20260510211047 | 27 | 154 | 1.6 | 12.9 | 0.00 | 0.00 | 0.00 | 32 | 1020.0 |
| 20260510210544 | 27 | 183 | 4.8 | 14.5 | 0.00 | 0.00 | 0.00 | 28 | 1020.0 |
| 20260510210053 | 27 | 95 | 3.2 | 14.5 | 0.00 | 0.00 | 0.00 | 33 | 1020.0 |
| 20260510205547 | 27 | 173 | 1.6 | 11.3 | 0.00 | 0.00 | 0.00 | 34 | 1020.0 |
| 20260510205048 | 27 | 190 | 1.6 | 11.3 | 0.00 | 0.00 | 0.00 | 35 | 1020.0 |
| 20260510204600 | 27 | 134 | 4.8 | 12.9 | 0.00 | 0.00 | 0.00 | 37 | 1020.0 |
| 20260510204050 | 27 | 205 | 3.2 | 12.9 | 0.00 | 0.00 | 0.00 | 34 | 1020.1 |
| 20260510203548 | 27 | 227 | 3.2 | 16.1 | 0.00 | 0.00 | 0.00 | 34 | 1020.0 |
| 20260510203055 | 27 | 127 | 4.8 | 16.1 | 0.00 | 0.00 | 0.00 | 30 | 1019.9 |
| 20260510202548 | 27 | 139 | 1.6 | 12.9 | 0.00 | 0.00 | 0.00 | 32 | 1020.0 |
| 20260510202046 | 27 | 97 | 3.2 | 12.9 | 0.00 | 0.00 | 0.00 | 32 | 1020.0 |
| 20260510201555 | 27 | 163 | 3.2 | 14.5 | 0.00 | 0.00 | 0.00 | 35 | 1019.9 |
| 20260510201044 | 27 | 136 | 4.8 | 14.5 | 0.00 | 0.00 | 0.00 | 32 | 1019.8 |
| 20260510200548 | 27 | 150 | 4.8 | 14.5 | 0.00 | 0.00 | 0.00 | 33 | 1019.9 |
| 20260510200053 | 27 | 165 | 4.8 | 14.5 | 0.00 | 0.00 | 0.00 | 30 | 1019.9 |
| 20260510195550 | 28 | 186 | 1.6 | 11.3 | 0.00 | 0.00 | 0.00 | 30 | 1019.8 |
| 20260510195046 | 27 | 200 | 3.2 | 17.7 | 0.00 | 0.00 | 0.00 | 29 | 1019.7 |
| 20260510194551 | 28 | 184 | 4.8 | 17.7 | 0.00 | 0.00 | 0.00 | 28 | 1019.7 |
| 20260510194048 | 28 | 187 | 3.2 | 17.7 | 0.00 | 0.00 | 0.00 | 28 | 1019.6 |
| 20260510193549 | 28 | 196 | 6.4 | 17.7 | 0.00 | 0.00 | 0.00 | 28 | 1019.6 |
| 20260510193052 | 28 | 192 | 4.8 | 20.9 | 0.00 | 0.00 | 0.00 | 27 | 1019.6 |
| 20260510192548 | 28 | 0 | 4.8 | 20.9 | 0.00 | 0.00 | 0.00 | 28 | 1019.6 |
| 20260510192049 | 28 | 136 | 6.4 | 16.1 | 0.00 | 0.00 | 0.00 | 25 | 1019.5 |
| 20260510191552 | 28 | 157 | 6.4 | 12.9 | 0.00 | 0.00 | 0.00 | 21 | 1019.5 |
| 20260510191046 | 28 | 238 | 4.8 | 14.5 | 0.00 | 0.00 | 0.00 | 21 | 1019.4 |
| 20260510190546 | 28 | 0 | 1.6 | 14.5 | 0.00 | 0.00 | 0.00 | 28 | 1019.4 |
| 20260510190054 | 28 | 199 | 1.6 | 8.0 | 0.00 | 0.00 | 0.00 | 27 | 1019.4 |
| 20260510185547 | 28 | 84 | 3.2 | 12.9 | 0.00 | 0.00 | 0.00 | 28 | 1019.5 |
| 20260510185046 | 28 | 140 | 1.6 | 12.9 | 0.00 | 0.00 | 0.00 | 28 | 1019.6 |
| 20260510184617 | 28 | 229 | 3.2 | 9.7 | 0.00 | 0.00 | 0.00 | 28 | 1019.6 |
| 20260510184048 | 28 | 0 | 0.0 | 6.4 | 0.00 | 0.00 | 0.00 | 29 | 1019.6 |
| 20260510183549 | 28 | 80 | 1.6 | 6.4 | 0.00 | 0.00 | 0.00 | 29 | 1019.6 |
| 20260510183051 | 28 | 150 | 1.6 | 9.7 | 0.00 | 0.00 | 0.00 | 26 | 1019.6 |
| 20260510182552 | 28 | 87 | 0.0 | 9.7 | 0.00 | 0.00 | 0.00 | 20 | 1019.6 |
| 20260510182047 | 28 | 98 | 4.8 | 11.3 | 0.00 | 0.00 | 0.00 | 25 | 1019.6 |
| 20260510181601 | 28 | 205 | 4.8 | 11.3 | 0.00 | 0.00 | 0.00 | 24 | 1019.5 |
| 20260510181044 | 28 | 127 | 1.6 | 8.0 | 0.00 | 0.00 | 0.00 | 21 | 1019.6 |
| 20260510180549 | 28 | 65 | 1.6 | 8.0 | 0.00 | 0.00 | 0.00 | 22 | 1019.6 |
| 20260510180114 | 28 | 188 | 1.6 | 8.0 | 0.00 | 0.00 | 0.00 | 21 | 1019.6 |
| 20260510175547 | 28 | 162 | 1.6 | 12.9 | 0.00 | 0.00 | 0.00 | 24 | 1019.7 |
| 20260510175047 | 28 | 102 | 3.2 | 12.9 | 0.00 | 0.00 | 0.00 | 17 | 1019.6 |
| 20260510174551 | 28 | 302 | 3.2 | 11.3 | 0.00 | 0.00 | 0.00 | 14 | 1019.5 |
| 20260510174047 | 28 | 0 | 1.6 | 9.7 | 0.00 | 0.00 | 0.00 | 13 | 1019.5 |
| 20260510173548 | 28 | 65 | 1.6 | 9.7 | 0.00 | 0.00 | 0.00 | 15 | 1019.4 |
| 20260510173050 | 28 | 209 | 3.2 | 8.0 | 0.00 | 0.00 | 0.00 | 16 | 1019.4 |
| 20260510172549 | 28 | 0 | 0.0 | 6.4 | 0.00 | 0.00 | 0.00 | 17 | 1019.4 |
| 20260510172047 | 28 | 0 | 1.6 | 6.4 | 0.00 | 0.00 | 0.00 | 13 | 1019.3 |
| 20260510171602 | 28 | 235 | 0.0 | 4.8 | 0.00 | 0.00 | 0.00 | 15 | 1019.4 |
| 20260510171052 | 27 | 337 | 0.0 | 6.4 | 0.00 | 0.00 | 0.00 | 15 | 1019.3 |
| 20260510170550 | 27 | 0 | 1.6 | 6.4 | 0.00 | 0.00 | 0.00 | 16 | 1019.3 |
| 20260510170101 | 26 | 279 | 1.6 | 6.4 | 0.00 | 0.00 | 0.00 | 10 | 1019.2 |
| 20260510165549 | 26 | 40 | 1.6 | 4.8 | 0.00 | 0.00 | 0.00 | 19 | 1019.2 |
| 20260510165048 | 26 | 63 | 0.0 | 4.8 | 0.00 | 0.00 | 0.00 | 17 | 1019.1 |
| 20260510164600 | 25 | 334 | 0.0 | 6.4 | 0.00 | 0.00 | 0.00 | 19 | 1019.2 |
| 20260510164048 | 25 | 0 | 1.6 | 6.4 | 0.00 | 0.00 | 0.00 | 16 | 1019.1 |
| 20260510163545 | 23 | 35 | 1.6 | 6.4 | 0.00 | 0.00 | 0.00 | 16 | 1019.1 |
| 20260510163054 | 22 | 305 | 1.6 | 6.4 | 0.00 | 0.00 | 0.00 | 20 | 1019.1 |
| 20260510162548 | 21 | 38 | 1.6 | 6.4 | 0.00 | 0.00 | 0.00 | 38 | 1019.1 |
| 20260510162050 | 21 | 0 | 0.0 | 4.8 | 0.00 | 0.00 | 0.00 | 39 | 1019.0 |
| 20260510161555 | 20 | 32 | 0.0 | 4.8 | 0.00 | 0.00 | 0.00 | 37 | 1019.0 |
| 20260510161047 | 20 | 61 | 0.0 | 4.8 | 0.00 | 0.00 | 0.00 | 45 | 1019.0 |
| 20260510160634 | 20 | 42 | 0.0 | 4.8 | 0.00 | 0.00 | 0.00 | 46 | 1018.8 |
| 20260510155547 | 18 | 19 | 1.6 | 3.2 | 0.00 | 0.00 | 0.00 | 48 | 1018.7 |
| 20260510155048 | 18 | 0 | 1.6 | 4.8 | 0.00 | 0.00 | 0.00 | 46 | 1018.7 |
| 20260510154618 | 17 | 0 | 0.0 | 4.8 | 0.00 | 0.00 | 0.00 | 50 | 1018.6 |
| 20260510154047 | 17 | 0 | 0.0 | 3.2 | 0.00 | 0.00 | 0.00 | 52 | 1018.6 |
| 20260510153546 | 16 | 0 | 0.0 | 3.2 | 0.00 | 0.00 | 0.00 | 51 | 1018.6 |
| 20260510153102 | 16 | 20 | 0.0 | 3.2 | 0.00 | 0.00 | 0.00 | 53 | 1018.5 |
| 20260510152547 | 16 | 0 | 0.0 | 3.2 | 0.00 | 0.00 | 0.00 | 49 | 1018.5 |
| 20260510152049 | 15 | 44 | 0.0 | 3.2 | 0.00 | 0.00 | 0.00 | 51 | 1018.5 |
| 20260510151554 | 15 | 47 | 0.0 | 3.2 | 0.00 | 0.00 | 0.00 | 52 | 1018.4 |
| 20260510151047 | 15 | 47 | 0.0 | 3.2 | 0.00 | 0.00 | 0.00 | 52 | 1018.4 |
| 20260510150544 | 14 | 42 | 0.0 | 3.2 | 0.00 | 0.00 | 0.00 | 53 | 1018.3 |
| 20260510150115 | 13 | 46 | 0.0 | 3.2 | 0.00 | 0.00 | 0.00 | 54 | 1018.4 |
| 20260510145548 | 13 | 46 | 1.6 | 3.2 | 0.00 | 0.00 | 0.00 | 56 | 1018.3 |
| 20260510145048 | 13 | 44 | 0.0 | 3.2 | 0.00 | 0.00 | 0.00 | 58 | 1018.3 |
| 20260510144608 | 12 | 0 | 0.0 | 3.2 | 0.00 | 0.00 | 0.00 | 60 | 1018.3 |
| 20260510144048 | 12 | 0 | 0.0 | 1.6 | 0.00 | 0.00 | 0.00 | 61 | 1018.3 |
| 20260510143546 | 12 | 259 | 0.0 | 1.6 | 0.00 | 0.00 | 0.00 | 61 | 1018.2 |
| 20260510143050 | 12 | 0 | 0.0 | 1.6 | 0.00 | 0.00 | 0.00 | 60 | 1018.2 |
| 20260510142548 | 12 | 0 | 0.0 | 1.6 | 0.00 | 0.00 | 0.00 | 58 | 1018.1 |
| 20260510142048 | 12 | 259 | 0.0 | 1.6 | 0.00 | 0.00 | 0.00 | 57 | 1018.1 |
| 20260510141557 | 12 | 259 | 0.0 | 1.6 | 0.00 | 0.00 | 0.00 | 56 | 1018.0 |
| 20260510141047 | 12 | 259 | 0.0 | 1.6 | 0.00 | 0.00 | 0.00 | 55 | 1018.0 |
| 20260510140547 | 11 | 0 | 0.0 | 1.6 | 0.00 | 0.00 | 0.00 | 54 | 1018.1 |
| 20260510140053 | 11 | 0 | 0.0 | 0.0 | 0.00 | 0.00 | 0.00 | 49 | 1018.0 |
| 20260510135547 | 11 | 0 | 0.0 | 0.0 | 0.00 | 0.00 | 0.00 | 49 | 1017.9 |
| 20260510135049 | 11 | 0 | 0.0 | 0.0 | 0.00 | 0.00 | 0.00 | 49 | 1017.9 |
| 20260510134558 | 11 | 0 | 0.0 | 0.0 | 0.00 | 0.00 | 0.00 | 46 | 1017.8 |
| 20260510134049 | 11 | 0 | 0.0 | 0.0 | 0.00 | 0.00 | 0.00 | 46 | 1017.7 |
| 20260510133547 | 11 | 0 | 0.0 | 0.0 | 0.00 | 0.00 | 0.00 | 44 | 1017.7 |
| 20260510133053 | 11 | 0 | 0.0 | 0.0 | 0.00 | 0.00 | 0.00 | 44 | 1017.6 |
| 20260510132547 | 11 | 0 | 0.0 | 0.0 | 0.00 | 0.00 | 0.00 | 43 | 1017.5 |
| 20260510132047 | 11 | 0 | 0.0 | 0.0 | 0.00 | 0.00 | 0.00 | 41 | 1017.5 |
| 20260510131556 | 11 | 0 | 0.0 | 0.0 | 0.00 | 0.00 | 0.00 | 41 | 1017.5 |
| 20260510131049 | 11 | 0 | 0.0 | 0.0 | 0.00 | 0.00 | 0.00 | 39 | 1017.5 |
| 20260510130547 | 11 | 0 | 0.0 | 0.0 | 0.00 | 0.00 | 0.00 | 38 | 1017.4 |
| 20260510130054 | 11 | 0 | 0.0 | 0.0 | 0.00 | 0.00 | 0.00 | 38 | 1017.5 |
| 20260510125545 | 11 | 0 | 0.0 | 0.0 | 0.00 | 0.00 | 0.00 | 39 | 1017.4 |
| 20260510125049 | 11 | 0 | 0.0 | 0.0 | 0.00 | 0.00 | 0.00 | 39 | 1017.4 |
| 20260510124559 | 11 | 0 | 0.0 | 0.0 | 0.00 | 0.00 | 0.00 | 38 | 1017.4 |
| 20260510124047 | 10 | 0 | 0.0 | 0.0 | 0.00 | 0.00 | 0.00 | 39 | 1017.4 |
| 20260510123547 | 10 | 0 | 0.0 | 0.0 | 0.00 | 0.00 | 0.00 | 37 | 1017.4 |
| 20260510123059 | 10 | 0 | 0.0 | 0.0 | 0.00 | 0.00 | 0.00 | 38 | 1017.4 |
| 20260510122640 | 10 | 0 | 0.0 | 0.0 | 0.00 | 0.00 | 0.00 | 41 | 1017.4 |
| 20260510122045 | 10 | 0 | 0.0 | 1.6 | 0.00 | 0.00 | 0.00 | 37 | 1017.4 |
| 20260510121557 | 10 | 0 | 0.0 | 1.6 | 0.00 | 0.00 | 0.00 | 42 | 1017.4 |
| 20260510121048 | 10 | 0 | 0.0 | 1.6 | 0.00 | 0.00 | 0.00 | 41 | 1017.4 |
| 20260510120546 | 10 | 0 | 0.0 | 1.6 | 0.00 | 0.00 | 0.00 | 41 | 1017.5 |
| 20260510115548 | 10 | 0 | 0.0 | 1.6 | 0.00 | 0.00 | 0.00 | 41 | 1017.5 |
| 20260510115048 | 10 | 0 | 0.0 | 1.6 | 0.00 | 0.00 | 0.00 | 40 | 1017.4 |
| 20260510114553 | 10 | 259 | 0.0 | 1.6 | 0.00 | 0.00 | 0.00 | 42 | 1017.5 |
| 20260510114046 | 10 | 0 | 0.0 | 1.6 | 0.00 | 0.00 | 0.00 | 41 | 1017.5 |
| 20260510113544 | 10 | 0 | 0.0 | 1.6 | 0.00 | 0.00 | 0.00 | 40 | 1017.6 |
| 20260510113054 | 10 | 0 | 0.0 | 0.0 | 0.00 | 0.00 | 0.00 | 39 | 1017.6 |
| 20260510112546 | 10 | 0 | 0.0 | 0.0 | 0.00 | 0.00 | 0.00 | 40 | 1017.6 |
| 20260510112047 | 10 | 0 | 0.0 | 0.0 | 0.00 | 0.00 | 0.00 | 40 | 1017.6 |
| 20260510111551 | 10 | 0 | 0.0 | 0.0 | 0.00 | 0.00 | 0.00 | 39 | 1017.7 |
| 20260510111044 | 10 | 0 | 0.0 | 0.0 | 0.00 | 0.00 | 0.00 | 38 | 1017.6 |
| 20260510110549 | 10 | 0 | 0.0 | 0.0 | 0.00 | 0.00 | 0.00 | 36 | 1017.6 |
| 20260510110053 | 10 | 0 | 0.0 | 0.0 | 0.00 | 0.00 | 0.00 | 38 | 1017.6 |
| 20260510105545 | 10 | 0 | 0.0 | 0.0 | 0.00 | 0.00 | 0.00 | 37 | 1017.6 |
| 20260510105045 | 10 | 0 | 0.0 | 0.0 | 0.00 | 0.00 | 0.00 | 37 | 1017.6 |
| 20260510104558 | 10 | 0 | 0.0 | 0.0 | 0.00 | 0.00 | 0.00 | 40 | 1017.5 |
| 20260510104047 | 10 | 0 | 0.0 | 0.0 | 0.00 | 0.00 | 0.00 | 37 | 1017.4 |
| 20260510103548 | 10 | 0 | 0.0 | 0.0 | 0.00 | 0.00 | 0.00 | 40 | 1017.5 |
| 20260510103052 | 10 | 0 | 0.0 | 0.0 | 0.00 | 0.00 | 0.00 | 40 | 1017.5 |
| 20260510102549 | 10 | 0 | 0.0 | 0.0 | 0.00 | 0.00 | 0.00 | 39 | 1017.5 |
| 20260510102048 | 10 | 0 | 0.0 | 0.0 | 0.00 | 0.00 | 0.00 | 43 | 1017.5 |
| 20260510101558 | 10 | 0 | 0.0 | 0.0 | 0.00 | 0.00 | 0.00 | 39 | 1017.5 |
| 20260510101047 | 10 | 0 | 0.0 | 0.0 | 0.00 | 0.00 | 0.00 | 38 | 1017.5 |
| 20260510100547 | 10 | 0 | 0.0 | 0.0 | 0.00 | 0.00 | 0.00 | 38 | 1017.6 |
| 20260510100055 | 10 | 0 | 0.0 | 0.0 | 0.00 | 0.00 | 0.00 | 39 | 1017.6 |
| 20260510095548 | 10 | 0 | 0.0 | 0.0 | 0.00 | 0.00 | 0.00 | 41 | 1017.5 |
| 20260510095046 | 10 | 0 | 0.0 | 0.0 | 0.00 | 0.00 | 0.00 | 41 | 1017.6 |
| 20260510094558 | 10 | 0 | 0.0 | 0.0 | 0.00 | 0.00 | 0.00 | 41 | 1017.6 |
| 20260510094045 | 10 | 0 | 0.0 | 0.0 | 0.00 | 0.00 | 0.00 | 40 | 1017.6 |
| 20260510093545 | 10 | 0 | 0.0 | 0.0 | 0.00 | 0.00 | 0.00 | 38 | 1017.5 |
| 20260510093052 | 10 | 0 | 0.0 | 1.6 | 0.00 | 0.00 | 0.00 | 39 | 1017.6 |
| 20260510092547 | 10 | 0 | 0.0 | 1.6 | 0.00 | 0.00 | 0.00 | 40 | 1017.7 |
| 20260510092045 | 10 | 0 | 0.0 | 0.0 | 0.00 | 0.00 | 0.00 | 41 | 1017.7 |
| 20260510091550 | 10 | 0 | 0.0 | 0.0 | 0.00 | 0.00 | 0.00 | 41 | 1017.7 |
| 20260510091048 | 10 | 0 | 0.0 | 0.0 | 0.00 | 0.00 | 0.00 | 44 | 1017.7 |
| 20260510090550 | 10 | 0 | 0.0 | 0.0 | 0.00 | 0.00 | 0.00 | 43 | 1017.7 |
| 20260510090053 | 10 | 0 | 0.0 | 0.0 | 0.00 | 0.00 | 0.00 | 42 | 1017.7 |
| 20260510085544 | 10 | 0 | 0.0 | 0.0 | 0.00 | 0.00 | 0.00 | 42 | 1017.7 |
| 20260510085045 | 10 | 0 | 0.0 | 0.0 | 0.00 | 0.00 | 0.00 | 44 | 1017.8 |
| 20260510084601 | 10 | 0 | 0.0 | 0.0 | 0.00 | 0.00 | 0.00 | 41 | 1017.8 |
| 20260510084047 | 10 | 0 | 0.0 | 0.0 | 0.00 | 0.00 | 0.00 | 41 | 1017.8 |
| 20260510083547 | 10 | 0 | 0.0 | 0.0 | 0.00 | 0.00 | 0.00 | 43 | 1017.9 |
| 20260510083113 | 10 | 0 | 0.0 | 0.0 | 0.00 | 0.00 | 0.00 | 41 | 1017.9 |
| 20260510082547 | 10 | 0 | 0.0 | 0.0 | 0.00 | 0.00 | 0.00 | 40 | 1017.9 |
| 20260510082048 | 10 | 0 | 0.0 | 0.0 | 0.00 | 0.00 | 0.00 | 41 | 1018.0 |
| 20260510081612 | 10 | 0 | 0.0 | 0.0 | 0.00 | 0.00 | 0.00 | 43 | 1018.0 |
| 20260510081048 | 10 | 0 | 0.0 | 0.0 | 0.00 | 0.00 | 0.00 | 43 | 1018.0 |
| 20260510080549 | 10 | 0 | 0.0 | 0.0 | 0.00 | 0.00 | 0.00 | 42 | 1018.0 |
| 20260510080053 | 10 | 0 | 0.0 | 0.0 | 0.00 | 0.00 | 0.00 | 42 | 1018.1 |
| 20260510075545 | 10 | 0 | 0.0 | 0.0 | 0.00 | 0.00 | 0.00 | 42 | 1018.1 |
| 20260510075047 | 10 | 0 | 0.0 | 0.0 | 0.00 | 0.00 | 0.00 | 43 | 1018.2 |
| 20260510074555 | 10 | 0 | 0.0 | 0.0 | 0.00 | 0.00 | 0.00 | 46 | 1018.3 |
| 20260510074048 | 10 | 0 | 0.0 | 0.0 | 0.00 | 0.00 | 0.00 | 44 | 1018.3 |
| 20260510073545 | 10 | 0 | 0.0 | 0.0 | 0.00 | 0.00 | 0.00 | 45 | 1018.3 |
| 20260510073056 | 10 | 0 | 0.0 | 0.0 | 0.00 | 0.00 | 0.00 | 46 | 1018.4 |
| 20260510072548 | 10 | 0 | 0.0 | 0.0 | 0.00 | 0.00 | 0.00 | 46 | 1018.5 |
| 20260510072046 | 10 | 0 | 0.0 | 0.0 | 0.00 | 0.00 | 0.00 | 46 | 1018.5 |
| 20260510071556 | 10 | 0 | 0.0 | 0.0 | 0.00 | 0.00 | 0.00 | 48 | 1018.5 |
| 20260510071048 | 10 | 0 | 0.0 | 0.0 | 0.00 | 0.00 | 0.00 | 47 | 1018.5 |
| 20260510070548 | 10 | 0 | 0.0 | 0.0 | 0.00 | 0.00 | 0.00 | 49 | 1018.5 |
| 20260510070055 | 10 | 0 | 0.0 | 0.0 | 0.00 | 0.00 | 0.00 | 46 | 1018.5 |
| 20260510065550 | 10 | 0 | 0.0 | 0.0 | 0.00 | 0.00 | 0.00 | 44 | 1018.6 |
| 20260510065046 | 10 | 0 | 0.0 | 0.0 | 0.00 | 0.00 | 0.00 | 45 | 1018.6 |
| 20260510064552 | 10 | 0 | 0.0 | 0.0 | 0.00 | 0.00 | 0.00 | 49 | 1018.6 |
| 20260510064047 | 10 | 0 | 0.0 | 0.0 | 0.00 | 0.00 | 0.00 | 51 | 1018.6 |
| 20260510063547 | 10 | 0 | 0.0 | 0.0 | 0.00 | 0.00 | 0.00 | 51 | 1018.6 |
| 20260510063050 | 10 | 0 | 0.0 | 0.0 | 0.00 | 0.00 | 0.00 | 50 | 1018.6 |
| 20260510062552 | 10 | 0 | 0.0 | 1.6 | 0.00 | 0.00 | 0.00 | 47 | 1018.6 |
| 20260510062049 | 10 | 0 | 0.0 | 1.6 | 0.00 | 0.00 | 0.00 | 47 | 1018.6 |
| 20260510061603 | 10 | 0 | 0.0 | 1.6 | 0.00 | 0.00 | 0.00 | 52 | 1018.5 |
| 20260510061048 | 10 | 0 | 0.0 | 1.6 | 0.00 | 0.00 | 0.00 | 50 | 1018.5 |
| 20260510060548 | 10 | 0 | 0.0 | 0.0 | 0.00 | 0.00 | 0.00 | 49 | 1018.5 |
| 20260510060055 | 10 | 0 | 0.0 | 0.0 | 0.00 | 0.00 | 0.00 | 40 | 1018.5 |
| 20260510055548 | 10 | 0 | 0.0 | 0.0 | 0.00 | 0.00 | 0.00 | 44 | 1018.5 |
| 20260510055047 | 11 | 0 | 0.0 | 1.6 | 0.00 | 0.00 | 0.00 | 45 | 1018.6 |
| 20260510054552 | 11 | 0 | 0.0 | 1.6 | 0.00 | 0.00 | 0.00 | 49 | 1018.5 |
| 20260510054046 | 11 | 0 | 0.0 | 3.2 | 0.00 | 0.00 | 0.00 | 51 | 1018.6 |
| 20260510053545 | 11 | 0 | 0.0 | 3.2 | 0.00 | 0.00 | 0.00 | 49 | 1018.6 |
| 20260510053057 | 11 | 259 | 0.0 | 1.6 | 0.00 | 0.00 | 0.00 | 54 | 1018.6 |
| 20260510052547 | 11 | 0 | 0.0 | 0.0 | 0.00 | 0.00 | 0.00 | 49 | 1018.5 |
| 20260510052047 | 11 | 0 | 0.0 | 0.0 | 0.00 | 0.00 | 0.00 | 55 | 1018.7 |
| 20260510051550 | 11 | 0 | 0.0 | 0.0 | 0.00 | 0.00 | 0.00 | 57 | 1018.8 |
| 20260510051049 | 11 | 0 | 0.0 | 0.0 | 0.00 | 0.00 | 0.00 | 61 | 1018.8 |
| 20260510050548 | 12 | 0 | 0.0 | 0.0 | 0.00 | 0.00 | 0.00 | 63 | 1018.8 |
| 20260510050053 | 12 | 0 | 0.0 | 0.0 | 0.00 | 0.00 | 0.00 | 65 | 1018.8 |
| 20260510045545 | 12 | 0 | 0.0 | 0.0 | 0.00 | 0.00 | 0.00 | 67 | 1018.8 |
| 20260510045049 | 12 | 0 | 0.0 | 0.0 | 0.00 | 0.00 | 0.00 | 67 | 1018.8 |
| 20260510044555 | 12 | 0 | 0.0 | 0.0 | 0.00 | 0.00 | 0.00 | 68 | 1018.7 |
| 20260510044045 | 12 | 0 | 0.0 | 0.0 | 0.00 | 0.00 | 0.00 | 68 | 1018.7 |
| 20260510043549 | 12 | 0 | 0.0 | 0.0 | 0.00 | 0.00 | 0.00 | 66 | 1018.6 |
| 20260510043055 | 12 | 0 | 0.0 | 0.0 | 0.00 | 0.00 | 0.00 | 66 | 1018.5 |
| 20260510042548 | 12 | 0 | 0.0 | 0.0 | 0.00 | 0.00 | 0.00 | 65 | 1018.5 |
| 20260510042052 | 12 | 0 | 0.0 | 0.0 | 0.00 | 0.00 | 0.00 | 66 | 1018.4 |
| 20260510041554 | 12 | 0 | 0.0 | 0.0 | 0.00 | 0.00 | 0.00 | 66 | 1018.4 |
| 20260510041045 | 12 | 0 | 0.0 | 0.0 | 0.00 | 0.00 | 0.00 | 65 | 1018.3 |
| 20260510040545 | 12 | 0 | 0.0 | 0.0 | 0.00 | 0.00 | 0.00 | 65 | 1018.3 |
| 20260510035547 | 12 | 0 | 0.0 | 0.0 | 0.00 | 0.00 | 0.00 | 64 | 1018.2 |
| 20260510035047 | 12 | 0 | 0.0 | 1.6 | 0.00 | 0.00 | 0.00 | 63 | 1018.2 |
| 20260510034558 | 12 | 0 | 0.0 | 1.6 | 0.00 | 0.00 | 0.00 | 64 | 1018.1 |
| 20260510034047 | 12 | 0 | 0.0 | 0.0 | 0.00 | 0.00 | 0.00 | 62 | 1018.0 |
| 20260510033548 | 12 | 0 | 0.0 | 0.0 | 0.00 | 0.00 | 0.00 | 64 | 1017.9 |
| 20260510033052 | 12 | 0 | 0.0 | 1.6 | 0.00 | 0.00 | 0.00 | 63 | 1017.9 |
| 20260510032547 | 12 | 0 | 0.0 | 1.6 | 0.00 | 0.00 | 0.00 | 63 | 1017.8 |
| 20260510032047 | 12 | 0 | 0.0 | 1.6 | 0.00 | 0.00 | 0.00 | 65 | 1017.8 |
| 20260510031601 | 12 | 0 | 0.0 | 1.6 | 0.00 | 0.00 | 0.00 | 63 | 1017.8 |
| 20260510031048 | 12 | 0 | 0.0 | 1.6 | 0.00 | 0.00 | 0.00 | 62 | 1017.8 |
| 20260510030546 | 13 | 0 | 0.0 | 1.6 | 0.00 | 0.00 | 0.00 | 63 | 1017.8 |
| 20260510030058 | 13 | 0 | 0.0 | 1.6 | 0.00 | 0.00 | 0.00 | 64 | 1017.7 |
| 20260510025548 | 13 | 0 | 0.0 | 0.0 | 0.00 | 0.00 | 0.00 | 64 | 1017.8 |
| 20260510025048 | 14 | 0 | 0.0 | 0.0 | 0.00 | 0.00 | 0.00 | 68 | 1017.7 |
| 20260510024557 | 14 | 0 | 0.0 | 0.0 | 0.00 | 0.00 | 0.00 | 76 | 1017.7 |
| 20260510024048 | 15 | 0 | 0.0 | 0.0 | 0.00 | 0.00 | 0.00 | 75 | 1017.7 |
| 20260510023544 | 15 | 0 | 0.0 | 0.0 | 0.00 | 0.00 | 0.00 | 75 | 1017.7 |
| 20260510023049 | 15 | 0 | 0.0 | 0.0 | 0.00 | 0.00 | 0.00 | 74 | 1017.7 |
| 20260510022547 | 15 | 0 | 0.0 | 0.0 | 0.00 | 0.00 | 0.00 | 73 | 1017.8 |
| 20260510022047 | 15 | 0 | 0.0 | 0.0 | 0.00 | 0.00 | 0.00 | 72 | 1017.7 |
| 20260510021557 | 16 | 0 | 0.0 | 0.0 | 0.00 | 0.00 | 0.00 | 72 | 1017.8 |
| 20260510021046 | 16 | 0 | 0.0 | 1.6 | 0.00 | 0.00 | 0.00 | 71 | 1017.7 |
| 20260510020547 | 16 | 0 | 0.0 | 1.6 | 0.00 | 0.00 | 0.00 | 70 | 1017.7 |
| 20260510020157 | 17 | 0 | 0.0 | 3.2 | 0.00 | 0.00 | 0.00 | 68 | 1017.7 |
| 20260510015547 | 17 | 0 | 0.0 | 3.2 | 0.00 | 0.00 | 0.00 | 67 | 1017.7 |
| 20260510015048 | 17 | 259 | 0.0 | 3.2 | 0.00 | 0.00 | 0.00 | 66 | 1017.6 |
| 20260510014559 | 18 | 0 | 1.6 | 3.2 | 0.00 | 0.00 | 0.00 | 65 | 1017.6 |
| 20260510014048 | 18 | 259 | 0.0 | 3.2 | 0.00 | 0.00 | 0.00 | 64 | 1017.7 |
| 20260510013548 | 18 | 259 | 0.0 | 4.8 | 0.00 | 0.00 | 0.00 | 62 | 1017.7 |
| 20260510013110 | 19 | 0 | 0.0 | 4.8 | 0.00 | 0.00 | 0.00 | 61 | 1017.7 |
| 20260510012548 | 19 | 172 | 0.0 | 4.8 | 0.00 | 0.00 | 0.00 | 60 | 1017.7 |
| 20260510012047 | 20 | 0 | 1.6 | 4.8 | 0.00 | 0.00 | 0.00 | 59 | 1017.7 |
| 20260510011552 | 20 | 0 | 0.0 | 4.8 | 0.00 | 0.00 | 0.00 | 60 | 1017.8 |
| 20260510011045 | 20 | 0 | 0.0 | 4.8 | 0.00 | 0.00 | 0.00 | 58 | 1017.8 |
| 20260510010544 | 20 | 0 | 0.0 | 4.8 | 0.00 | 0.00 | 0.00 | 57 | 1017.8 |
| 20260510010050 | 20 | 185 | 0.0 | 4.8 | 0.00 | 0.00 | 0.00 | 57 | 1017.8 |
| 20260510005545 | 21 | 0 | 0.0 | 4.8 | 0.00 | 0.00 | 0.00 | 55 | 1017.8 |
| 20260510005045 | 21 | 30 | 1.6 | 8.0 | 0.00 | 0.00 | 0.00 | 55 | 1017.7 |
| 20260510004555 | 21 | 180 | 0.0 | 9.7 | 0.00 | 0.00 | 0.00 | 54 | 1017.7 |
| 20260510004044 | 21 | 0 | 0.0 | 11.3 | 0.00 | 0.00 | 0.00 | 53 | 1017.7 |
| 20260510003545 | 21 | 0 | 3.2 | 11.3 | 0.00 | 0.00 | 0.00 | 53 | 1017.8 |
| 20260510003051 | 22 | 252 | 1.6 | 11.3 | 0.00 | 0.00 | 0.00 | 52 | 1017.7 |
| 20260510002550 | 22 | 146 | 1.6 | 11.3 | 0.00 | 0.00 | 0.00 | 51 | 1017.7 |
| 20260510002045 | 22 | 228 | 3.2 | 11.3 | 0.00 | 0.00 | 0.00 | 50 | 1017.7 |
| 20260510001555 | 23 | 0 | 0.0 | 6.4 | 0.00 | 0.00 | 0.00 | 49 | 1017.7 |
| 20260510001134 | 23 | 209 | 0.0 | 6.4 | 0.00 | 0.00 | 0.00 | 49 | 1017.7 |
| 20260510001045 | 23 | 209 | 0.0 | 6.4 | 0.00 | 0.00 | 0.00 | 49 | 1017.7 |
| 20260510000547 | 23 | 151 | 1.6 | 12.9 | 0.00 | 0.00 | 0.00 | 49 | 1017.7 |
| 20260510000052 | 23 | 300 | 4.8 | 12.9 | 0.00 | 0.00 | 0.00 | 47 | 1017.7 |
| 20260509235550 | 23 | 184 | 1.6 | 6.4 | 0.00 | 0.00 | 0.00 | 47 | 1017.7 |
| 20260509235045 | 23 | 145 | 1.6 | 8.0 | 0.00 | 0.00 | 0.00 | 47 | 1017.7 |
| 20260509234551 | 23 | 170 | 3.2 | 14.5 | 0.00 | 0.00 | 0.00 | 46 | 1017.7 |
| 20260509234045 | 23 | 198 | 1.6 | 16.1 | 0.00 | 0.00 | 0.00 | 46 | 1017.6 |
| 20260509233547 | 23 | 232 | 3.2 | 16.1 | 0.00 | 0.00 | 0.00 | 47 | 1017.6 |
| 20260509233058 | 23 | 0 | 1.6 | 11.3 | 0.00 | 0.00 | 0.00 | 46 | 1017.7 |
| 20260509232548 | 24 | 153 | 3.2 | 12.9 | 0.00 | 0.00 | 0.00 | 46 | 1017.7 |
| 20260509232045 | 24 | 194 | 1.6 | 12.9 | 0.00 | 0.00 | 0.00 | 45 | 1017.7 |